CW0987 Weather Reports


Display with metric or nautical units.
time (UTC)temp
F
wind
direction
speed
MPH
gust
MPH
rain 1hr
in
rain 24hr
in
rain mn
in
humidity
%
barometer
mb
20260508013042 70 259 11.0 14.0 0.00 0.00 0.00 65 1012.1
20260508012611 70 202 8.0 14.0 0.00 0.00 0.00 65 1012.1
20260508012041 70 288 12.0 17.0 0.00 0.00 0.00 64 1012.1
20260508011541 71 232 11.0 20.0 0.00 0.00 0.00 64 1012.1
20260508011041 71 288 11.0 20.0 0.00 0.00 0.00 63 1012.1
20260508010541 71 264 16.0 16.0 0.00 0.00 0.00 63 1012.2
20260508010110 72 208 10.0 18.0 0.00 0.00 0.00 62 1012.1
20260508005540 72 277 13.0 18.0 0.00 0.00 0.00 61 1011.9
20260508005040 73 207 9.0 18.0 0.00 0.00 0.00 60 1011.9
20260508004039 72 272 18.0 20.0 0.00 0.00 0.00 60 1011.8
20260508003110 73 234 16.0 19.0 0.00 0.00 0.00 60 1011.8
20260508002539 73 241 12.0 15.0 0.00 0.00 0.00 59 1011.9
20260508002109 73 238 8.0 14.0 0.00 0.00 0.00 60 1011.9
20260508001609 73 243 12.0 14.0 0.00 0.00 0.00 59 1011.8
20260508000538 73 253 9.0 24.0 0.00 0.00 0.00 59 1011.8
20260508000108 73 263 11.0 22.0 0.00 0.00 0.00 60 1011.9
20260507235609 73 247 5.0 22.0 0.00 0.00 0.00 60 1012.0
20260507235038 73 223 12.0 19.0 0.00 0.00 0.00 59 1011.9
20260507234608 74 240 12.0 24.0 0.00 0.00 0.00 59 1012.0
20260507234107 74 250 14.0 24.0 0.00 0.00 0.00 58 1012.0
20260507233608 75 246 10.0 18.0 0.00 0.00 0.00 57 1012.2
20260507233107 74 269 4.0 18.0 0.00 0.00 0.00 57 1012.0
20260507232612 75 236 11.0 19.0 0.00 0.00 0.00 57 1012.1
20260507232107 74 236 9.0 22.0 0.00 0.00 0.00 58 1012.0
20260507231607 74 229 15.0 22.0 0.00 0.00 0.00 57 1011.9
20260507231107 74 292 7.0 21.0 0.00 0.00 0.00 56 1011.9
20260507230607 75 239 11.0 21.0 0.00 0.00 0.00 56 1012.1
20260507225606 74 284 17.0 23.0 0.00 0.00 0.00 56 1012.0
20260507225107 74 286 16.0 23.0 0.00 0.00 0.00 56 1012.1
20260507224606 75 265 14.0 21.0 0.00 0.00 0.00 55 1012.1
20260507224106 75 258 6.0 21.0 0.00 0.00 0.00 55 1012.2
20260507223105 76 211 12.0 19.0 0.00 0.00 0.00 53 1012.3
20260507222606 76 214 10.0 19.0 0.00 0.00 0.00 53 1012.3
20260507222105 76 285 7.0 19.0 0.00 0.00 0.00 53 1012.3
20260507221105 75 270 8.0 19.0 0.00 0.00 0.00 54 1012.5
20260507220604 75 200 12.0 19.0 0.00 0.00 0.00 53 1012.6
20260507220104 75 205 8.0 20.0 0.00 0.00 0.00 54 1012.6
20260507215604 76 290 13.0 20.0 0.00 0.00 0.00 54 1012.6
20260507215104 76 273 11.0 18.0 0.00 0.00 0.00 54 1012.7
20260507214604 76 200 8.0 19.0 0.00 0.00 0.00 55 1012.8
20260507214104 75 268 10.0 19.0 0.00 0.00 0.00 54 1012.9
20260507213103 77 294 13.0 16.0 0.00 0.00 0.00 54 1013.0
20260507212603 76 201 9.0 23.0 0.00 0.00 0.00 56 1013.0
20260507211603 76 264 14.0 18.0 0.00 0.00 0.00 55 1013.0
20260507211103 76 238 10.0 18.0 0.00 0.00 0.00 55 1013.0
20260507210603 76 281 9.0 19.0 0.00 0.00 0.00 55 1013.0
20260507210103 76 211 5.0 19.0 0.00 0.00 0.00 55 1013.1
20260507205603 76 257 18.0 18.0 0.00 0.00 0.00 55 1013.2
20260507205102 76 183 7.0 17.0 0.00 0.00 0.00 55 1013.3
20260507204603 76 240 11.0 18.0 0.00 0.00 0.00 56 1013.3
20260507203602 76 245 4.0 18.0 0.00 0.00 0.00 54 1013.3
20260507203102 76 224 7.0 18.0 0.00 0.00 0.00 54 1013.2
20260507202101 76 282 14.0 18.0 0.00 0.00 0.00 52 1013.4
20260507201601 76 263 12.0 17.0 0.00 0.00 0.00 52 1013.4
20260507201101 76 297 13.0 17.0 0.00 0.00 0.00 52 1013.5
20260507195600 76 281 13.0 14.0 0.00 0.00 0.00 52 1013.8
20260507194601 76 255 9.0 14.0 0.00 0.00 0.00 53 1013.8
20260507194100 76 315 5.0 15.0 0.00 0.00 0.00 52 1013.8
20260507193600 76 260 11.0 15.0 0.00 0.00 0.00 53 1013.9
20260507192600 76 219 5.0 11.0 0.00 0.00 0.00 53 1014.0
20260507191600 75 298 5.0 10.0 0.00 0.00 0.00 53 1014.1
20260507191059 75 241 5.0 10.0 0.00 0.00 0.00 54 1014.1
20260507190559 75 252 4.0 12.0 0.00 0.00 0.00 53 1014.2
20260507185058 75 244 4.0 12.0 0.00 0.00 0.00 54 1014.5
20260507184559 75 303 2.0 12.0 0.00 0.00 0.00 55 1014.5
20260507184058 74 259 7.0 12.0 0.00 0.00 0.00 55 1014.5
20260507183558 75 341 6.0 9.0 0.00 0.00 0.00 55 1014.6
20260507182558 74 27 5.0 11.0 0.00 0.00 0.00 55 1014.5
20260507182057 74 185 3.0 11.0 0.00 0.00 0.00 56 1014.5
20260507181558 74 257 9.0 11.0 0.00 0.00 0.00 56 1014.5
20260507181057 74 320 3.0 10.0 0.00 0.00 0.00 56 1014.6
20260507180558 75 9 9.0 10.0 0.00 0.00 0.00 55 1014.7
20260507180057 74 20 3.0 8.0 0.00 0.00 0.00 56 1014.7
20260507175557 74 290 3.0 8.0 0.00 0.00 0.00 56 1014.8
20260507175057 73 5 3.0 8.0 0.00 0.00 0.00 57 1014.9
20260507174556 73 346 3.0 8.0 0.00 0.00 0.00 57 1014.9
20260507174056 72 139 2.0 5.0 0.00 0.00 0.00 58 1014.8
20260507173556 72 36 3.0 5.0 0.00 0.00 0.00 58 1014.8
20260507173056 72 67 4.0 5.0 0.00 0.00 0.00 59 1014.8
20260507171555 71 309 2.0 5.0 0.00 0.00 0.00 60 1014.9
20260507171055 71 5 1.0 5.0 0.00 0.00 0.00 61 1015.0
20260507170556 70 302 0.0 5.0 0.00 0.00 0.00 62 1015.0
20260507170055 70 345 3.0 6.0 0.00 0.00 0.00 63 1015.0
20260507165555 70 55 0.0 6.0 0.00 0.00 0.00 63 1015.0
20260507165055 70 68 2.0 6.0 0.00 0.00 0.00 65 1015.0
20260507164554 69 13 1.0 6.0 0.00 0.00 0.00 66 1015.0
20260507164055 69 296 3.0 4.0 0.00 0.00 0.00 65 1015.0
20260507162554 67 327 2.0 5.0 0.00 0.00 0.00 68 1015.2
20260507161553 67 76 2.0 4.0 0.00 0.00 0.00 68 1015.2
20260507161054 66 94 1.0 4.0 0.00 0.00 0.00 69 1015.1
20260507160553 66 67 0.0 3.0 0.00 0.00 0.00 69 1015.1
20260507160053 66 78 1.0 4.0 0.00 0.00 0.00 70 1015.1
20260507155553 65 94 1.0 4.0 0.00 0.00 0.00 71 1015.2
20260507154553 65 342 3.0 3.0 0.00 0.00 0.00 72 1015.3
20260507153552 64 59 3.0 4.0 0.00 0.00 0.00 72 1015.4
20260507153052 64 26 2.0 4.0 0.00 0.00 0.00 71 1015.4
20260507152552 65 81 2.0 3.0 0.00 0.00 0.00 71 1015.4
20260507152052 64 76 1.0 3.0 0.00 0.00 0.00 72 1015.5
20260507151552 64 115 1.0 2.0 0.00 0.00 0.00 73 1015.4
20260507150552 63 92 0.0 2.0 0.00 0.00 0.00 77 1015.3
20260507150051 62 66 0.0 2.0 0.00 0.00 0.00 77 1015.2
20260507145551 62 66 1.0 3.0 0.00 0.00 0.00 77 1015.4
20260507145051 61 63 2.0 3.0 0.00 0.00 0.00 77 1015.3
20260507144550 61 80 1.0 2.0 0.00 0.00 0.00 79 1015.3
20260507144050 61 115 0.0 1.0 0.00 0.00 0.00 80 1015.3
20260507143551 60 115 0.0 1.0 0.00 0.00 0.00 80 1015.2
20260507143050 60 115 0.0 1.0 0.00 0.00 0.00 81 1015.2
20260507142550 60 120 0.0 1.0 0.00 0.00 0.00 81 1015.2
20260507142051 60 37 1.0 1.0 0.00 0.00 0.00 83 1015.1
20260507141550 59 200 0.0 0.0 0.00 0.00 0.00 85 1015.1
20260507141050 59 200 0.0 0.0 0.00 0.00 0.00 86 1015.0
20260507140550 58 200 0.0 0.0 0.00 0.00 0.00 87 1015.1
20260507140049 57 329 0.0 0.0 0.00 0.00 0.00 89 1014.9
20260507135549 56 329 0.0 0.0 0.00 0.00 0.00 89 1015.0
20260507135049 55 269 0.0 0.0 0.00 0.00 0.00 88 1014.9
20260507134549 55 269 0.0 0.0 0.00 0.00 0.00 88 1014.8
20260507134049 55 269 0.0 0.0 0.00 0.00 0.00 88 1014.8
20260507133548 54 269 0.0 0.0 0.00 0.00 0.00 88 1014.6
20260507133048 54 269 0.0 0.0 0.00 0.00 0.00 87 1014.6
20260507132048 54 172 0.0 0.0 0.00 0.00 0.00 87 1014.5
20260507131548 54 172 0.0 0.0 0.00 0.00 0.00 87 1014.6
20260507130047 54 261 0.0 0.0 0.00 0.00 0.00 87 1014.4
20260507125547 54 261 0.0 1.0 0.00 0.00 0.00 86 1014.5
20260507125047 54 237 0.0 1.0 0.00 0.00 0.00 86 1014.5
20260507124548 54 178 0.0 0.0 0.00 0.00 0.00 86 1014.5
20260507124047 55 178 0.0 0.0 0.00 0.00 0.00 85 1014.6
20260507123548 55 178 0.0 0.0 0.00 0.00 0.00 86 1014.5
20260507123047 55 178 0.0 1.0 0.00 0.00 0.00 86 1014.5
20260507122546 55 178 0.0 2.0 0.00 0.00 0.00 86 1014.5
20260507122047 55 178 0.0 2.0 0.00 0.00 0.00 86 1014.5
20260507121546 55 178 1.0 3.0 0.00 0.00 0.00 85 1014.5
20260507121046 55 178 2.0 3.0 0.00 0.00 0.00 85 1014.6
20260507120546 55 173 0.0 3.0 0.00 0.00 0.00 85 1014.7
20260507120045 55 173 1.0 3.0 0.00 0.00 0.00 84 1014.7
20260507115045 55 173 0.0 2.0 0.00 0.00 0.00 84 1014.8
20260507114545 55 173 1.0 2.0 0.00 0.00 0.00 85 1014.7
20260507114045 55 173 1.0 2.0 0.00 0.00 0.00 85 1014.7
20260507113545 55 173 0.0 2.0 0.00 0.00 0.00 84 1014.7
20260507113045 55 173 1.0 2.0 0.00 0.00 0.00 84 1014.7
20260507111544 55 185 0.0 2.0 0.00 0.00 0.00 85 1014.9
20260507111044 55 190 0.0 2.0 0.00 0.00 0.00 85 1014.9
20260507110544 55 190 0.0 2.0 0.00 0.00 0.00 85 1014.9
20260507110044 55 190 2.0 2.0 0.00 0.00 0.00 85 1014.9
20260507105543 55 190 0.0 0.0 0.00 0.00 0.00 84 1015.0
20260507105043 55 190 0.0 0.0 0.00 0.00 0.00 84 1015.1
20260507104543 55 190 0.0 0.0 0.00 0.00 0.00 84 1015.1
20260507103042 55 190 0.0 0.0 0.00 0.00 0.00 82 1015.1
20260507102542 56 190 0.0 0.0 0.00 0.00 0.00 82 1015.1
20260507102043 56 190 0.0 0.0 0.00 0.00 0.00 82 1015.1
20260507101542 56 190 0.0 0.0 0.00 0.00 0.00 81 1015.2
20260507101042 56 190 0.0 0.0 0.00 0.00 0.00 81 1015.2
20260507100042 56 190 0.0 0.0 0.00 0.00 0.00 81 1015.3
20260507095542 56 190 0.0 3.0 0.00 0.00 0.00 80 1015.3
20260507095041 56 190 0.0 3.0 0.00 0.00 0.00 80 1015.3
20260507094541 56 190 2.0 2.0 0.00 0.00 0.00 80 1015.3
20260507093041 56 190 0.0 0.0 0.00 0.00 0.00 79 1015.6
20260507092540 56 190 0.0 2.0 0.00 0.00 0.00 78 1015.6
20260507091540 56 190 2.0 3.0 0.00 0.00 0.00 78 1015.6
20260507091040 57 190 2.0 3.0 0.00 0.00 0.00 78 1015.8
20260507090540 56 190 1.0 3.0 0.00 0.00 0.00 77 1015.6
20260507090040 56 190 1.0 3.0 0.00 0.00 0.00 78 1015.7
20260507085540 56 192 2.0 3.0 0.00 0.00 0.00 78 1015.7
20260507084539 56 203 2.0 3.0 0.00 0.00 0.00 78 1015.9
20260507084039 56 203 0.0 0.0 0.00 0.00 0.00 78 1016.0
20260507083539 56 203 0.0 0.0 0.00 0.00 0.00 78 1015.9
20260507083039 57 203 0.0 0.0 0.00 0.00 0.00 78 1016.0
20260507082539 57 203 0.0 0.0 0.00 0.00 0.00 78 1015.9
20260507082038 57 203 0.0 0.0 0.00 0.00 0.00 78 1016.0
20260507081538 57 203 0.0 0.0 0.00 0.00 0.00 78 1016.0
20260507081038 57 203 0.0 0.0 0.00 0.00 0.00 78 1016.0
20260507080538 58 203 0.0 4.0 0.00 0.00 0.00 78 1016.2
20260507075537 57 204 4.0 4.0 0.00 0.00 0.00 80 1016.1
20260507075038 57 199 4.0 4.0 0.00 0.00 0.00 80 1016.0
20260507074037 57 185 0.0 3.0 0.00 0.00 0.00 80 1016.0
20260507073607 57 185 0.0 3.0 0.00 0.00 0.00 80 1016.0
20260507072536 56 207 1.0 3.0 0.00 0.00 0.00 80 1016.1
20260507072107 56 207 2.0 3.0 0.00 0.00 0.00 80 1016.1
20260507071606 57 207 1.0 3.0 0.00 0.00 0.00 80 1016.1
20260507071106 57 207 0.0 2.0 0.00 0.00 0.00 80 1016.3
20260507070606 57 207 0.0 2.0 0.00 0.00 0.00 79 1016.2
20260507070106 57 207 1.0 2.0 0.00 0.00 0.00 79 1016.2
20260507065606 57 207 1.0 2.0 0.00 0.00 0.00 79 1016.2
20260507064606 57 252 1.0 1.0 0.00 0.00 0.00 78 1016.4
20260507063606 58 221 0.0 2.0 0.00 0.00 0.00 77 1016.4
20260507063105 58 221 1.0 3.0 0.00 0.00 0.00 77 1016.4
20260507062605 58 221 2.0 3.0 0.00 0.00 0.00 76 1016.4
20260507062104 59 177 3.0 3.0 0.00 0.00 0.00 76 1016.3
20260507061105 59 101 0.0 3.0 0.00 0.00 0.00 76 1016.4
20260507060604 59 101 2.0 5.0 0.00 0.00 0.00 76 1016.3
20260507055104 59 191 4.0 8.0 0.00 0.00 0.00 76 1016.1
20260507054103 59 242 4.0 8.0 0.00 0.00 0.00 75 1016.2
20260507053604 59 223 2.0 8.0 0.00 0.00 0.00 75 1016.2
20260507053103 59 229 4.0 8.0 0.00 0.00 0.00 75 1016.2
20260507052603 60 240 4.0 6.0 0.00 0.00 0.00 74 1016.1
20260507052103 60 201 4.0 7.0 0.00 0.00 0.00 74 1016.1
20260507051103 61 240 3.0 10.0 0.00 0.00 0.00 73 1016.1
20260507050602 61 191 6.0 10.0 0.00 0.00 0.00 73 1016.1
20260507045602 61 205 4.0 9.0 0.00 0.00 0.00 73 1015.9
20260507045103 61 230 4.0 9.0 0.00 0.00 0.00 73 1015.9
20260507044601 61 193 4.0 10.0 0.00 0.00 0.00 73 1015.9
20260507044103 61 270 4.0 11.0 0.00 0.00 0.00 73 1015.9
20260507043601 61 298 4.0 12.0 0.00 0.00 0.00 73 1015.9
20260507043102 61 272 4.0 12.0 0.00 0.00 0.00 72 1015.8
20260507042601 61 274 3.0 10.0 0.00 0.00 0.00 72 1015.8
20260507041601 62 225 3.0 11.0 0.00 0.00 0.00 71 1015.8
20260507041101 62 254 3.0 11.0 0.00 0.00 0.00 72 1015.8
20260507040101 62 223 6.0 8.0 0.00 0.00 0.00 72 1015.7
20260507035600 62 243 4.0 10.0 0.00 0.00 0.00 72 1015.5
20260507035100 62 246 4.0 10.0 0.00 0.00 0.00 71 1015.5
20260507034600 63 223 8.0 10.0 0.00 0.00 0.00 71 1015.5
20260507034059 63 225 6.0 11.0 0.00 0.00 0.00 71 1015.5
20260507033059 63 232 7.0 9.0 0.00 0.00 0.00 70 1015.4
20260507032559 63 225 5.0 11.0 0.00 0.00 0.00 69 1015.4
20260507031559 63 228 6.0 12.0 0.00 0.00 0.00 69 1015.3
20260507031059 64 229 4.0 14.0 0.00 0.00 0.00 68 1015.2
20260507030558 64 197 6.0 14.0 0.00 0.00 0.00 68 1015.1
20260507025058 64 219 6.0 13.0 0.00 0.00 0.00 68 1014.9
20260507024558 64 220 9.0 13.0 0.00 0.00 0.00 68 1014.8
20260507024058 65 261 9.0 13.0 0.00 0.00 0.00 67 1014.8
20260507023557 65 238 9.0 11.0 0.00 0.00 0.00 67 1014.7
20260507023058 65 215 4.0 11.0 0.00 0.00 0.00 66 1014.6
20260507022557 65 236 9.0 14.0 0.00 0.00 0.00 65 1014.6
20260507022057 66 201 8.0 14.0 0.00 0.00 0.00 65 1014.7
20260507021557 66 290 7.0 11.0 0.00 0.00 0.00 64 1014.6
20260507020557 67 246 7.0 12.0 0.00 0.00 0.00 63 1014.5
20260507020057 67 226 6.0 11.0 0.00 0.00 0.00 63 1014.6
20260507015556 67 248 8.0 14.0 0.00 0.00 0.00 62 1014.4
20260507015056 68 265 4.0 14.0 0.00 0.00 0.00 61 1014.4
20260507014556 68 238 8.0 14.0 0.00 0.00 0.00 61 1014.3
20260507014056 68 245 5.0 14.0 0.00 0.00 0.00 60 1014.4
20260507013556 69 279 11.0 14.0 0.00 0.00 0.00 59 1014.2